Flag for U.S.A. Weather past 2 weeks in Costa Mesa, California, U.S.A.

Now
65 °F

Cloudy.


Feels Like: 65 °F
Forecast: 60 / 68 °F
Wind: 5 mph from West

Location: John Wayne Airport-Orange County Airport

Current Time: Jan 30, 2015 at 8:21:04 AM

Latest Report: Jan 30, 2015 at 7:53 AM


Visibility: 10 mi

Pressure: 29.91 "Hg

Humidity: 56%

Dew point: 49 °F

Location of Costa MesaLocation

Historic Weather in Costa Mesa — Graph

°F

Costa Mesa temperature yesterday

Maximum temperature yesterday: 75 °F (at 11:53 AM)
Minimum temperature yesterday: 62 °F (at 2:53 AM)
Average temperature yesterday: 67 °F

Past Weeks' High & Low Weather Summary

 TemperatureHumidityPressure
High84 °F (Jan 25, 12:53 PM)90% (Jan 20, 1:53 AM)30.25 "Hg (Jan 20, 1:53 AM)
Low49 °F (Jan 16, 5:53 AM)5% (Jan 23, 1:53 PM)29.91 "Hg (Jan 30, 4:53 AM)
Average64 °F52%30.09 "Hg
* Reported Jan 15 6:53 AM — Jan 30 6:53 AM, Costa Mesa, Weather by CustomWeather, © 2014

Note: Actual official high and low records may vary slightly from our data, if they occured in-between our weather recording intervals... More about our weather records

Advertising

Costa Mesa weather history for previous 24 hours

 ConditionsComfort  
Time TempWeatherWind HumidityBarometerVisibility
6:53 AM
Jan 30
65 °FMostly cloudy.No wind54%29.92 "Hg10 mi
5:53 AM64 °FMostly cloudy.No wind61%29.91 "Hg10 mi
4:53 AM65 °FLight rain. Overcast.No wind54%29.91 "Hg10 mi
3:53 AM65 °FLight rain. Overcast.No wind54%29.92 "Hg10 mi
2:53 AM66 °FLight rain. Overcast.No wind52%29.94 "Hg10 mi
1:53 AM66 °FLight rain. Overcast.No wind52%29.95 "Hg10 mi
12:53 AM68 °FLight rain. Overcast.No wind44%29.96 "Hg10 mi
11:53 PM
Jan 29
66 °FLight rain. Overcast.6 mph59%30.00 "Hg10 mi
10:53 PM66 °FLight rain. Overcast.No wind59%30.01 "Hg10 mi
9:53 PM68 °FOvercast.No wind47%30.00 "Hg10 mi
8:53 PM68 °FOvercast.No wind49%30.01 "Hg10 mi
7:53 PM68 °FOvercast.No wind55%30.02 "Hg10 mi
6:53 PM68 °FLight rain. Overcast.No wind57%30.02 "Hg10 mi
5:53 PM68 °FMostly cloudy.3 mph55%30.00 "Hg10 mi
4:53 PM69 °FMostly cloudy.No wind49%29.98 "Hg10 mi
3:53 PM70 °FPartly sunny.5 mph47%29.98 "Hg10 mi
2:53 PM70 °FMostly cloudy.3 mph55%29.98 "Hg10 mi
1:53 PM74 °FMostly cloudy.7 mph32%29.98 "Hg10 mi
12:53 PM74 °FMostly cloudy.9 mph32%29.99 "Hg10 mi
11:53 AM75 °FBroken clouds.5 mph32%30.02 "Hg10 mi
10:53 AM73 °FBroken clouds.5 mph40%30.05 "Hg10 mi
9:53 AM69 °FPartly sunny.3 mph59%30.05 "Hg10 mi
8:53 AM67 °FPartly sunny.3 mph63%30.04 "Hg10 mi
Weather by CustomWeather, © 2014

See weather overviewHow to use our weather pages